GW1174 Weather Reports


time (UTC)temp
F
wind
direction
speed
knots
gust
knots
rain 1hr
in
rain 24hr
in
rain mn
in
humidity
%
barometer
mb
20260831031517 70 114 6.1 7.0 0.00 0.20 0.20 39 1071.4
20260831031016 56 0.0 0.0 0.00 0.00 0.00 92 1012.9
20260831030517 70 118 6.1 7.0 0.00 0.20 0.20 40 1072.1
20260831030017 56 0.0 0.0 0.00 0.00 0.00 92 1012.8
20260831025517 70 122 6.1 7.0 0.00 0.20 0.20 40 1072.9
20260831025017 55 0.0 0.0 0.00 0.00 0.00 92 1013.1
20260831024517 70 126 6.1 7.0 0.00 0.20 0.20 41 1073.6
20260831024037 55 0.0 0.0 0.00 0.00 0.00 92 1013.4
20260831023517 70 129 5.2 7.0 0.00 0.20 0.20 42 1074.4
20260831023016 55 0.0 0.0 0.00 0.00 0.00 92 1013.4
20260831022617 70 133 5.2 7.0 0.00 0.20 0.20 42 1075.1
20260831022017 55 0.0 0.0 0.00 0.00 0.00 92 1013.7
20260831021517 70 137 5.2 6.1 0.00 0.20 0.20 43 1075.9
20260831021037 55 0.0 0.0 0.00 0.00 0.00 92 1013.5
20260831020516 70 141 5.2 6.1 0.00 0.20 0.20 43 1076.6
20260831020017 55 0.0 0.0 0.00 0.00 0.00 92 1013.5
20260831015517 70 145 5.2 6.1 0.00 0.20 0.20 44 1077.4
20260831015016 54 0.0 0.0 0.00 0.00 0.00 91 1013.7
20260831014517 70 148 5.2 6.1 0.01 0.20 0.20 45 1078.1
20260831014037 54 0.0 0.0 0.00 0.00 0.00 91 1013.7
20260831013517 70 152 5.2 6.1 0.02 0.20 0.20 45 1078.9
20260831013016 54 0.0 0.0 0.00 0.00 0.00 91 1014.1
20260831012517 69 156 5.2 6.1 0.03 0.20 0.20 46 1079.7
20260831012036 55 0.0 0.0 0.00 0.00 0.00 91 1014.1
20260831011517 69 160 5.2 6.1 0.05 0.20 0.20 47 1080.4
20260831011016 55 0.0 0.0 0.00 0.00 0.00 91 1014.0
20260831010517 69 164 4.3 6.1 0.06 0.20 0.20 47 1081.2
20260831010016 55 0.0 0.0 0.00 0.00 0.00 91 1014.4
20260831005517 69 168 4.3 5.2 0.07 0.20 0.20 48 1082.0
20260831005016 55 0.0 0.0 0.00 0.00 0.00 91 1014.4
20260831004517 68 172 4.3 5.2 0.07 0.20 0.19 49 1082.8
20260831004016 55 0.0 0.0 0.00 0.00 0.00 90 1014.6
20260831003517 68 176 4.3 5.2 0.07 0.20 0.18 49 1083.5
20260831003016 55 0.0 0.0 0.00 0.00 0.00 90 1014.5
20260831002537 67 180 4.3 5.2 0.07 0.20 0.17 50 1084.3
20260831002016 56 0.0 0.0 0.00 0.00 0.00 90 1014.7
20260831001517 67 184 4.3 5.2 0.06 0.20 0.15 51 1085.1
20260831001016 56 0.0 0.0 0.00 0.00 0.00 90 1014.8
20260831000517 66 187 4.3 5.2 0.06 0.20 0.14 51 1085.9
20260831000036 56 0.0 0.0 0.00 0.00 0.00 90 1015.0
20260830235537 66 191 4.3 5.2 0.06 0.20 0.13 52 1086.6
20260830235036 56 0.0 0.0 0.00 0.00 0.00 90 1014.9
20260830234517 65 195 4.3 5.2 0.07 0.20 0.12 53 1087.4
20260830234016 56 0.0 0.0 0.00 0.00 0.00 89 1014.8
20260830233537 65 199 3.5 4.3 0.07 0.20 0.11 53 1088.2
20260830233016 57 0.0 0.0 0.00 0.00 0.00 89 1014.8
20260830232517 64 203 3.5 4.3 0.07 0.20 0.10 54 1089.0
20260830232016 57 0.0 0.0 0.00 0.00 0.00 89 1015.0
20260830231517 64 207 3.5 4.3 0.07 0.20 0.09 55 1089.7
20260830231016 57 0.0 0.0 0.00 0.00 0.00 89 1015.1
20260830230517 63 211 3.5 4.3 0.07 0.20 0.08 55 1090.5
20260830230016 57 0.0 0.0 0.00 0.00 0.00 88 1015.3
20260830225517 62 215 3.5 4.3 0.07 0.20 0.07 56 1091.3
20260830225016 58 0.0 0.0 0.00 0.00 0.00 88 1015.2
20260830224517 62 219 3.5 4.3 0.05 0.20 0.05 56 1092.0
20260830224016 58 0.0 0.0 0.00 0.00 0.00 88 1015.2
20260830223517 61 222 3.5 4.3 0.04 0.20 0.04 57 1092.8
20260830223016 58 0.0 0.0 0.00 0.00 0.00 87 1015.3
20260830222517 60 226 3.5 3.5 0.03 0.20 0.03 58 1093.5
20260830222016 58 0.0 0.0 0.00 0.00 0.00 86 1015.3
20260830221517 59 230 3.5 3.5 0.02 0.20 0.02 58 1094.3
20260830221136 59 0.0 0.0 0.00 0.00 0.00 86 1015.3
20260830220517 59 234 3.5 3.5 0.01 0.20 0.01 59 1095.0
20260830220016 59 0.0 0.0 0.00 0.00 0.00 85 1015.2
20260830215517 58 238 2.6 3.5 0.00 0.20 0.20 60 1095.8
20260830215019 60 0.0 0.0 0.00 0.00 0.00 84 1015.2
20260830214517 57 241 2.6 3.5 0.00 0.20 0.20 60 1096.5
20260830214037 61 0.0 0.0 0.00 0.00 0.00 83 1015.2
20260830213517 56 245 2.6 3.5 0.00 0.20 0.20 61 1097.2
20260830213017 61 0.0 0.0 0.00 0.00 0.00 83 1015.3
20260830212518 55 249 2.6 3.5 0.00 0.20 0.20 61 1098.0
20260830212017 62 0.0 0.0 0.00 0.00 0.00 82 1015.3
20260830211517 54 252 2.6 3.5 0.00 0.20 0.20 62 1098.7
20260830211017 62 180 0.9 1.7 0.00 0.00 0.00 82 1015.4
20260830210517 54 256 2.6 3.5 0.00 0.20 0.20 63 1099.4
20260830210017 63 0.0 0.9 0.00 0.00 0.00 81 1015.4
20260830205537 53 259 2.6 2.6 0.00 0.20 0.20 63 1100.1
20260830205017 64 0.0 0.0 0.00 0.00 0.00 80 1015.3
20260830204517 52 263 2.6 2.6 0.00 0.20 0.20 64 1100.8
20260830204017 64 180 0.9 2.6 0.00 0.00 0.00 80 1015.2
20260830203537 51 266 2.6 2.6 0.00 0.20 0.20 64 1101.5
20260830203037 64 180 1.7 2.6 0.00 0.00 0.00 79 1015.3
20260830202517 50 270 2.6 2.6 0.00 0.20 0.20 65 1102.1
20260830202057 64 180 1.7 3.5 0.00 0.00 0.00 79 1015.3
20260830201517 49 273 1.7 2.6 0.00 0.20 0.20 66 1102.8
20260830201017 65 180 1.7 3.5 0.00 0.00 0.00 79 1015.5
20260830200517 48 276 1.7 2.6 0.00 0.20 0.20 66 1103.5
20260830200017 65 180 1.7 2.6 0.00 0.00 0.00 78 1015.6
20260830195517 47 280 1.7 2.6 0.00 0.20 0.20 67 1104.1
20260830195017 65 180 1.7 1.7 0.00 0.00 0.00 78 1015.5
20260830194517 47 283 1.7 2.6 0.00 0.20 0.20 67 1104.8
20260830194017 66 180 1.7 2.6 0.00 0.00 0.00 77 1015.5
20260830193517 46 286 1.7 1.7 0.00 0.20 0.20 68 1105.4
20260830193016 66 180 0.9 1.7 0.00 0.00 0.00 76 1015.3
20260830192517 45 289 1.7 1.7 0.00 0.20 0.20 68 1106.0
20260830192017 67 180 0.9 2.6 0.00 0.00 0.00 76 1015.4
20260830191517 44 292 1.7 1.7 0.00 0.20 0.20 69 1106.6
20260830191017 67 180 1.7 3.5 0.00 0.00 0.00 75 1015.4
20260830190517 43 295 1.7 1.7 0.00 0.20 0.20 69 1107.2
20260830190017 67 180 1.7 1.7 0.00 0.00 0.00 74 1015.3
20260830185537 42 298 1.7 1.7 0.00 0.20 0.20 70 1107.8
20260830185016 68 180 0.9 1.7 0.00 0.00 0.00 73 1015.3
20260830184517 42 301 1.7 1.7 0.00 0.20 0.20 70 1108.4
20260830184017 68 180 0.9 2.6 0.00 0.00 0.00 73 1015.1
20260830183517 41 304 1.7 1.7 0.00 0.20 0.20 71 1109.0
20260830183036 69 180 0.9 1.7 0.00 0.00 0.00 72 1015.1
20260830182517 40 307 0.9 1.7 0.00 0.20 0.20 71 1109.5
20260830182016 69 180 1.7 2.6 0.00 0.00 0.00 71 1014.9
20260830181517 39 310 0.9 1.7 0.00 0.20 0.20 72 1110.1
20260830181016 70 180 1.7 2.6 0.00 0.00 0.00 69 1014.9
20260830180517 39 312 0.9 1.7 0.00 0.20 0.20 72 1110.6
20260830180016 70 180 1.7 3.5 0.00 0.00 0.00 69 1014.8
20260830175517 38 315 0.9 1.7 0.00 0.20 0.20 73 1111.1
20260830175036 71 180 1.7 3.5 0.00 0.00 0.00 68 1014.7
20260830174517 37 318 0.9 0.9 0.00 0.20 0.20 73 1111.6
20260830174016 72 180 1.7 2.6 0.00 0.00 0.00 66 1014.7
20260830173517 37 320 0.9 0.9 0.00 0.20 0.20 73 1112.1
20260830173037 72 180 1.7 4.3 0.00 0.00 0.00 65 1014.7
20260830172517 36 323 0.9 0.9 0.00 0.20 0.20 74 1112.6
20260830172017 73 225 2.6 4.3 0.00 0.00 0.00 64 1014.6
20260830171517 35 325 0.9 0.9 0.00 0.20 0.20 74 1113.1
20260830171016 73 225 4.3 6.1 0.00 0.00 0.00 63 1014.6
20260830170517 35 327 0.9 0.9 0.00 0.20 0.20 75 1113.5
20260830170016 73 225 4.3 9.6 0.00 0.00 0.00 63 1014.6
20260830165517 34 329 0.9 0.9 0.00 0.20 0.20 75 1114.0
20260830165016 74 225 2.6 5.2 0.00 0.00 0.00 63 1014.5
20260830164537 34 332 0.9 0.9 0.00 0.20 0.20 75 1114.4
20260830164017 74 203 4.3 7.8 0.00 0.00 0.00 62 1014.7
20260830163517 33 334 0.9 0.9 0.00 0.20 0.20 76 1114.8
20260830163016 74 225 4.3 8.7 0.00 0.00 0.00 62 1014.6
20260830162517 33 336 0.9 0.9 0.00 0.20 0.20 76 1115.2
20260830162057 74 225 4.3 7.8 0.00 0.00 0.00 61 1014.8
20260830161517 32 338 0.9 0.9 0.00 0.20 0.20 76 1115.6
20260830161016 74 225 5.2 7.8 0.00 0.00 0.00 61 1014.8
20260830160517 32 339 0.9 0.9 0.00 0.20 0.20 77 1115.9
20260830160016 75 203 6.1 10.4 0.00 0.00 0.00 60 1014.7
20260830155517 32 341 0.9 0.9 0.00 0.20 0.20 77 1116.3
20260830155016 75 203 5.2 9.6 0.00 0.00 0.00 58 1014.7
20260830154517 31 343 0.0 0.9 0.00 0.20 0.20 77 1116.6
20260830154016 76 203 4.3 8.7 0.00 0.00 0.00 58 1014.9
20260830153517 31 345 0.0 0.9 0.00 0.20 0.20 77 1116.9
20260830153016 76 225 7.0 12.2 0.00 0.00 0.00 58 1015.0
20260830152517 31 346 0.0 0.0 0.00 0.20 0.20 78 1117.3
20260830152016 76 225 5.2 11.3 0.00 0.00 0.00 58 1014.9
20260830151537 30 348 0.0 0.0 0.00 0.20 0.20 78 1117.5
20260830151016 76 203 7.0 10.4 0.00 0.00 0.00 57 1014.8
20260830150537 30 349 0.0 0.0 0.00 0.20 0.20 78 1117.8
20260830150016 76 203 6.1 12.2 0.00 0.00 0.00 57 1014.9
20260830145517 30 350 0.0 0.0 0.00 0.20 0.20 78 1118.1
20260830145016 76 203 5.2 9.6 0.00 0.00 0.00 56 1014.9
20260830144517 30 352 0.0 0.0 0.00 0.20 0.20 79 1118.3
20260830144036 77 203 6.1 13.0 0.00 0.00 0.00 55 1015.0
20260830143537 30 353 0.0 0.0 0.00 0.20 0.20 79 1118.5
20260830143016 77 225 6.1 13.0 0.00 0.00 0.00 56 1015.0
20260830142537 30 354 0.0 0.0 0.00 0.20 0.20 79 1118.8
20260830142036 77 203 7.8 14.8 0.00 0.00 0.00 54 1015.0
20260830141517 30 355 0.0 0.0 0.00 0.20 0.20 79 1119.0
20260830141016 78 203 7.8 13.0 0.00 0.00 0.00 53 1015.0
20260830140517 30 356 0.0 0.0 0.00 0.20 0.20 79 1119.1
20260830140016 77 203 7.0 12.2 0.00 0.00 0.00 54 1014.9
20260830135517 30 356 0.0 0.0 0.00 0.20 0.20 79 1119.3
20260830135016 77 225 7.0 11.3 0.00 0.00 0.00 52 1014.9
20260830134517 30 357 0.0 0.0 0.00 0.20 0.20 80 1119.4
20260830134036 77 225 7.0 13.0 0.00 0.00 0.00 53 1015.1
20260830133517 30 358 0.0 0.0 0.00 0.20 0.20 80 1119.6
20260830133016 78 225 5.2 9.6 0.00 0.00 0.00 54 1015.2
20260830132517 31 358 0.0 0.0 0.00 0.20 0.20 80 1119.7
20260830132016 77 248 6.1 12.2 0.00 0.00 0.00 53 1015.2
20260830131537 31 359 0.0 0.0 0.00 0.20 0.20 80 1119.8
20260830131036 76 225 7.8 15.6 0.00 0.00 0.00 53 1015.3
20260830130537 31 359 0.0 0.0 0.00 0.20 0.20 80 1119.8
20260830130036 77 225 7.0 13.9 0.00 0.00 0.00 53 1015.3
20260830125517 31 360 0.0 0.0 0.00 0.20 0.20 80 1119.9
20260830125016 76 248 7.8 13.9 0.00 0.00 0.00 53 1015.4
20260830124517 32 360 0.0 0.0 0.00 0.20 0.20 80 1120.0
20260830124016 77 203 8.7 13.9 0.00 0.00 0.00 54 1015.4
20260830123518 32 360 0.0 0.0 0.00 0.20 0.20 80 1120.0
20260830123016 74 203 5.2 9.6 0.00 0.00 0.00 58 1015.3
20260830122517 33 360 0.0 0.0 0.00 0.20 0.20 80 1120.0
20260830122016 75 225 7.0 13.0 0.00 0.00 0.00 55 1015.5
20260830121515 56 320 0.9 0.9 0.00 0.20 0.20 73 1112.0
20260830121016 74 225 5.2 9.6 0.00 0.00 0.00 58 1015.5
20260830120515 57 317 0.9 0.9 0.00 0.20 0.20 73 1111.5
20260830120036 75 203 7.0 11.3 0.00 0.00 0.00 56 1015.4
20260830115516 58 315 0.9 1.7 0.00 0.20 0.20 72 1111.0
20260830115015 75 225 7.0 10.4 0.00 0.00 0.00 57 1015.5
20260830114515 59 312 0.9 1.7 0.00 0.20 0.20 72 1110.5
20260830114038 73 225 6.1 10.4 0.00 0.00 0.00 60 1015.6
20260830113515 59 309 0.9 1.7 0.00 0.20 0.20 72 1110.0
20260830113017 73 270 7.8 12.2 0.00 0.00 0.00 59 1015.5
20260830112515 60 307 0.9 1.7 0.00 0.20 0.20 71 1109.4
20260830112018 72 248 7.8 12.2 0.00 0.00 0.00 60 1015.5
20260830111515 61 304 1.7 1.7 0.00 0.20 0.20 71 1108.9
20260830111018 73 248 7.0 13.9 0.00 0.00 0.00 59 1015.4
20260830110515 62 301 1.7 1.7 0.00 0.20 0.20 70 1108.3
20260830110017 75 203 7.0 13.0 0.00 0.00 0.00 56 1015.7
20260830105515 62 298 1.7 1.7 0.00 0.20 0.20 70 1107.7
20260830105038 73 270 8.7 14.8 0.00 0.00 0.00 60 1015.6
20260830104515 63 295 1.7 1.7 0.00 0.20 0.20 69 1107.1
20260830104037 73 225 6.1 9.6 0.00 0.00 0.00 61 1015.7
20260830103535 64 292 1.7 1.7 0.00 0.20 0.20 69 1106.5
20260830103017 73 225 7.0 12.2 0.00 0.00 0.00 59 1015.7
20260830102515 64 289 1.7 1.7 0.00 0.20 0.20 68 1105.9
20260830102016 73 225 7.8 13.9 0.00 0.00 0.00 59 1015.7
20260830101515 65 286 1.7 2.6 0.00 0.20 0.20 68 1105.3
20260830101017 73 203 7.8 15.6 0.00 0.00 0.00 59 1015.8
20260830100515 65 282 1.7 2.6 0.00 0.20 0.20 67 1104.7
20260830100017 72 225 8.7 16.5 0.00 0.00 0.00 61 1015.7
20260830095535 66 279 1.7 2.6 0.00 0.20 0.20 67 1104.0
20260830095517 72 225 7.0 11.3 0.00 0.00 0.00 62 1015.9
20260830094517 72 225 7.0 10.4 0.00 0.00 0.00 63 1015.9
20260830094515 67 276 1.7 2.6 0.00 0.20 0.20 66 1103.4
20260830093517 72 225 7.0 10.4 0.00 0.00 0.00 63 1016.0
20260830092517 71 225 7.0 13.0 0.00 0.00 0.00 64 1015.9
20260830091536 68 266 2.6 2.6 0.00 0.20 0.20 64 1101.4
20260830091517 71 225 7.8 14.8 0.00 0.00 0.00 63 1015.8
20260830090535 68 262 2.6 2.6 0.00 0.20 0.20 64 1100.7
20260830090517 72 203 7.0 11.3 0.00 0.00 0.00 64 1016.1
20260830085517 72 225 6.1 11.3 0.00 0.00 0.00 65 1016.0
20260830085515 69 259 2.6 2.6 0.00 0.20 0.20 63 1100.0
20260830084517 70 225 7.0 10.4 0.00 0.00 0.00 66 1015.9
20260830084515 69 255 2.6 3.5 0.00 0.20 0.20 63 1099.3
20260830083517 70 225 7.0 10.4 0.00 0.00 0.00 67 1015.9
20260830083515 69 252 2.6 3.5 0.00 0.20 0.20 62 1098.6
20260830082517 70 225 5.2 9.6 0.00 0.00 0.00 68 1015.9
20260830082515 69 248 2.6 3.5 0.00 0.20 0.20 61 1097.8
20260830081517 70 225 6.1 9.6 0.00 0.00 0.00 67 1015.7
20260830081515 70 244 2.6 3.5 0.00 0.20 0.20 61 1097.1
20260830080517 71 180 7.0 16.5 0.00 0.00 0.00 67 1015.9
20260830080515 70 241 2.6 3.5 0.00 0.20 0.20 60 1096.4
20260830075539 70 225 3.5 7.8 0.00 0.00 0.00 69 1015.7
20260830075515 70 237 2.6 3.5 0.00 0.20 0.20 59 1095.7
20260830074517 69 180 6.1 11.3 0.00 0.00 0.00 71 1015.7
20260830074515 70 233 3.5 3.5 0.00 0.20 0.20 59 1094.9
20260830073517 68 203 6.1 10.4 0.00 0.00 0.00 74 1015.8
20260830073515 70 229 3.5 3.5 0.00 0.20 0.20 58 1094.2
20260830072517 66 158 4.3 8.7 0.00 0.00 0.00 76 1015.6
20260830072515 70 226 3.5 4.3 0.00 0.20 0.20 58 1093.4
20260830071537 66 158 4.3 8.7 0.00 0.00 0.00 76 1015.6
20260830071515 70 222 3.5 4.3 0.00 0.20 0.20 57 1092.7
20260830070517 65 158 3.5 7.0 0.00 0.00 0.00 77 1015.6
20260830070515 70 218 3.5 4.3 0.00 0.20 0.20 56 1091.9
20260830065517 65 158 4.3 7.0 0.00 0.00 0.00 78 1015.5
20260830065515 70 214 3.5 4.3 0.00 0.20 0.20 56 1091.2
20260830064517 65 203 1.7 3.5 0.00 0.00 0.00 78 1015.5
20260830064515 70 210 3.5 4.3 0.00 0.20 0.20 55 1090.4
20260830063517 64 158 2.6 6.1 0.00 0.00 0.00 78 1015.5
20260830063515 69 206 3.5 4.3 0.00 0.20 0.20 54 1089.6
20260830062517 64 158 2.6 5.2 0.00 0.00 0.00 78 1015.4
20260830062515 69 203 3.5 4.3 0.00 0.20 0.20 54 1088.9
20260830061517 64 158 3.5 7.0 0.00 0.00 0.00 78 1015.6
20260830061515 69 199 3.5 4.3 0.00 0.20 0.20 53 1088.1
20260830060517 64 203 2.6 5.2 0.00 0.00 0.00 79 1015.6
20260830060515 69 195 4.3 5.2 0.00 0.20 0.20 52 1087.3
20260830055517 64 158 3.5 6.1 0.00 0.00 0.00 79 1015.4
20260830055515 68 191 4.3 5.2 0.00 0.20 0.20 52 1086.5
20260830054517 63 158 3.5 5.2 0.00 0.00 0.00 79 1015.5
20260830054515 68 187 4.3 5.2 0.00 0.20 0.20 51 1085.8
20260830053537 63 158 3.5 5.2 0.00 0.00 0.00 79 1015.5
20260830053535 68 183 4.3 5.2 0.00 0.20 0.20 50 1085.0
20260830052535 67 179 4.3 5.2 0.00 0.20 0.20 50 1084.2
20260830052517 63 158 2.6 4.3 0.00 0.00 0.00 79 1015.5
20260830051517 62 158 2.6 5.2 0.00 0.00 0.00 79 1015.5
20260830051515 67 175 4.3 5.2 0.00 0.20 0.20 49 1083.4
20260830050517 62 158 2.6 4.3 0.00 0.00 0.00 80 1015.4
20260830050515 66 171 4.3 5.2 0.00 0.20 0.20 49 1082.7
20260830045520 62 158 2.6 4.3 0.00 0.00 0.00 80 1015.5
20260830045515 66 167 4.3 5.2 0.00 0.20 0.20 48 1081.9
20260830044517 62 158 2.6 4.3 0.00 0.00 0.00 80 1015.6
20260830044515 65 163 4.3 6.1 0.00 0.20 0.20 47 1081.1
20260830043517 62 158 3.5 4.3 0.00 0.00 0.00 80 1015.5
20260830043515 65 159 5.2 6.1 0.00 0.20 0.20 47 1080.3
20260830042537 62 158 2.6 5.2 0.00 0.00 0.00 80 1015.7
20260830042535 64 156 5.2 6.1 0.00 0.20 0.20 46 1079.6
20260830041517 62 158 2.6 3.5 0.00 0.00 0.00 80 1015.5
20260830041515 63 152 5.2 6.1 0.00 0.20 0.20 45 1078.8
20260830040517 62 158 3.5 6.1 0.00 0.00 0.00 80 1015.5
20260830040515 63 148 5.2 6.1 0.00 0.20 0.20 45 1078.0
20260830035517 62 158 3.5 6.1 0.00 0.00 0.00 80 1015.7
20260830035515 62 144 5.2 6.1 0.00 0.20 0.20 44 1077.3
20260830034517 62 158 2.6 4.3 0.00 0.00 0.00 80 1015.5
20260830034515 61 140 5.2 6.1 0.00 0.20 0.20 43 1076.5
20260830033536 62 158 1.7 3.5 0.00 0.00 0.00 80 1015.5
20260830032516 62 113 1.7 3.5 0.00 0.00 0.00 81 1015.5